loading
DOY 175 | 2024-06-23T11:49:08Z

OBJECT C, 60014

Orbit data source: Space-Track

OBJECT C, 60014 is a satellite owned by Tsinghua (CN) in SSO that was launched on Thu, 06 Jun 2024 UTC via a Gushenxing 1 launch vehicle from the Jiuquan Satellite Launch Center, China (JSC). Unknown objects in Earth's orbit typically refer to objects detected orbiting the Earth but have not yet been identified or cataloged. These objects could be anything from previously untracked satellites, spent rocket stages, debris from satellite collisions, or even natural meteoroids temporarily captured by Earth's gravity.

Loading next visibility...
Loading greatness...
OBJECT C details
NORAD ID60014
COSPAR ID
2024-110C
Orbit
SSO
Last TLE update7 hours ago
Origin
Flag of CNTsinghua (CN / PRC)
ManufacturerTsinghua
BusNaxing
MotorUnknown
Mass20 kg wet, 20 kg dry
Launch date (UTC)
2024-06-06 (2 weeks ago)
Launch vehicle
Gushenxing 1
Launch site
Jiuquan Satellite Launch Center, China (JSC)
Object typeUnknown
Radar Cross SectionLarge (>1 m²)
Predictive object data (real-time)
Latitude-19.2322°
Longitude99.09368°
Altitude546.97 km
Speed7.592 km/s
Apparent Right ascension07h 37m 20s
Apparent Declination-36° 41' 02"
Sunlit
Object is in daylight
Predictive observer data (real-time)
Local Sidereal Time22:57:13
Azimuth101.706° ESE
Elevation-51.162°
Doppler factor1
Orbital elements
Apogee552.724 km
Perigee534.982 km
Semi-major axis6,921.99 km
Eccentricity0.0012816
Inclination97.6018°
RAAN261.6956°
Arg. of periapsis234.189°
True anomaly125.93368°
Mean anomaly125.8147°
Mean motion3.76874 °/min
BSTAR0.00025387
Period95.52 mins
Definitive object data (Epoch: 2024-06-23T04:33:36.904Z)
Latitude-0.00002°
Longitude-78.55072°
Altitude555.129 km
Speed7.581 km/s
True Right ascension17h 26m 46s
True Declination0° 00' 00"
Sunlit
Object was in full shadow at TLE epoch
TLE from 7 hours ago
0 OBJECT C
1 60014U 24110C   24175.19001047  .00003696  00000-0  25387-3 0  9992
2 60014  97.6018 261.6956 0012816 234.1890 125.8147 15.06514561  2558
Epoch: 2024-06-23T04:33Z
No data available
Other satellites on launch #110 in the year 2024 (2024-06-06 UTC)

OBJECT C Visibility forecast

Observer location: 39.9160978°, -105.1181434, 0m alt.

OBJECT C is not visible in the next 10 days
Span
Click to sort rows by Start time (UTC) header in descending order
Start Az.
Max El. time (UTC)
Max El. Az.
Max El.
End time (UTC)
End Az.